SPFKE EPBY-EPBY

Flight info

Callsign SPFKE
Flight time 0h 4m
Altitude 1000
Route PAPA
Aircraft MI2/L-VGD/N

Departure

Time 2026-04-30 13:12
Airport Ignacy Jan Paderewski Bydgoszcz Airport (EPBY)

Arrival

Time 2026-04-30 13:16
Airport Ignacy Jan Paderewski Bydgoszcz Airport (EPBY)
Time Latitude Longitude Altitude Speed Heading
2026-04-30 12:57 53.10522 17.96879 218 ft 0 kts 263°
2026-04-30 13:06 53.10512 17.96814 252 ft 24 kts 259°
2026-04-30 13:06 53.10387 17.96360 320 ft 57 kts 241°
2026-04-30 13:06 53.09996 17.95997 395 ft 76 kts 199°
2026-04-30 13:06 53.09419 17.96117 412 ft 89 kts 165°
2026-04-30 13:07 53.08818 17.96239 465 ft 85 kts 216°
2026-04-30 13:07 53.08838 17.95526 521 ft 76 kts 328°
2026-04-30 13:07 53.09427 17.95357 433 ft 92 kts 348°
2026-04-30 13:07 53.10065 17.95197 408 ft 93 kts 348°
2026-04-30 13:08 53.10683 17.95001 448 ft 89 kts 345°
2026-04-30 13:08 53.11286 17.94770 472 ft 86 kts 346°
2026-04-30 13:08 53.11848 17.94543 541 ft 82 kts 343°
2026-04-30 13:08 53.12408 17.94304 593 ft 85 kts 342°
2026-04-30 13:09 53.12998 17.94046 561 ft 90 kts 342°
2026-04-30 13:09 53.13558 17.93677 679 ft 84 kts 331°
2026-04-30 13:09 53.14064 17.93207 754 ft 85 kts 328°
2026-04-30 13:09 53.14508 17.92560 741 ft 90 kts 300°
2026-04-30 13:10 53.14724 17.91555 721 ft 93 kts 290°
2026-04-30 13:10 53.14900 17.90526 728 ft 91 kts 288°
2026-04-30 13:10 53.15034 17.89497 733 ft 90 kts 285°
2026-04-30 13:10 53.15162 17.88461 770 ft 92 kts 287°
2026-04-30 13:11 53.15595 17.87931 814 ft 88 kts
2026-04-30 13:11 53.16019 17.88697 830 ft 103 kts 75°
2026-04-30 13:11 53.15869 17.89891 734 ft 109 kts 110°
2026-04-30 13:11 53.15675 17.91097 732 ft 104 kts 99°
2026-04-30 13:12 53.15585 17.92239 899 ft 97 kts 91°
2026-04-30 13:12 53.15570 17.93391 911 ft 101 kts 89°
2026-04-30 13:12 53.15595 17.94560 891 ft 100 kts 85°
2026-04-30 13:13 53.15885 17.96792 1016 ft 102 kts 72°
2026-04-30 13:13 53.16121 17.97921 1032 ft 103 kts 69°
2026-04-30 13:13 53.15607 17.99936 1050 ft 103 kts 131°
2026-04-30 13:14 53.15084 18.00675 1193 ft 94 kts 163°
2026-04-30 13:14 53.14460 18.01002 1228 ft 97 kts 168°
2026-04-30 13:14 53.13067 18.01680 1183 ft 102 kts 176°
2026-04-30 13:15 53.12411 18.01590 1129 ft 86 kts 208°
2026-04-30 13:15 53.11622 18.00380 920 ft 76 kts 246°
2026-04-30 13:15 53.11325 17.99715 829 ft 66 kts 252°
2026-04-30 13:16 53.11091 17.99120 671 ft 61 kts 250°
2026-04-30 13:16 53.10885 17.98572 525 ft 50 kts 248°
2026-04-30 13:16 53.10730 17.98110 416 ft 38 kts 218°
2026-04-30 13:17 53.10413 17.97473 421 ft 36 kts 266°
2026-04-30 13:17 53.10451 17.97155 315 ft 19 kts 269°
2026-04-30 13:17 53.10471 17.96903 237 ft 4 kts 229°
2026-04-30 13:18 53.10469 17.96899 220 ft 0 kts 229°
2026-04-30 13:18 53.10467 17.96893 219 ft 0 kts 255°